| time (UTC) | temp F | wind direction | speed knots | gust knots | rain 1hr in | rain 24hr in | rain mn in | humidity % | barometer mb |
| 20260504050020 | 37 | 155 | 0.0 | 0.0 | 0.00 | 0.00 | 0.00 | 66 | 1016.5 |
| 20260504044524 | 37 | 155 | 0.0 | 0.0 | 0.00 | 0.00 | 0.00 | 74 | 1016.4 |
| 20260504043009 | 37 | 155 | 0.0 | 0.0 | 0.00 | 0.00 | 0.00 | 75 | 1016.2 |
| 20260504041509 | 38 | 155 | 0.0 | 0.0 | 0.00 | 0.00 | 0.00 | 79 | 1016.1 |
| 20260504040016 | 38 | 155 | 0.0 | 0.0 | 0.00 | 0.00 | 0.00 | 81 | 1016.1 |
| 20260504034522 | 39 | 155 | 0.0 | 0.0 | 0.00 | 0.00 | 0.00 | 82 | 1016.0 |
| 20260504033003 | 39 | 155 | 0.0 | 0.0 | 0.00 | 0.00 | 0.00 | 83 | 1015.8 |
| 20260504031511 | 40 | 155 | 0.0 | 0.0 | 0.00 | 0.00 | 0.00 | 83 | 1015.7 |
| 20260504030015 | 40 | 155 | 0.0 | 0.0 | 0.00 | 0.00 | 0.00 | 83 | 1015.7 |
| 20260504024516 | 41 | 155 | 0.0 | 0.0 | 0.00 | 0.00 | 0.00 | 82 | 1015.7 |
| 20260504023022 | 41 | 155 | 0.0 | 0.0 | 0.00 | 0.00 | 0.00 | 81 | 1015.6 |
| 20260504021523 | 42 | 155 | 0.0 | 0.0 | 0.00 | 0.00 | 0.00 | 78 | 1015.6 |
| 20260504020007 | 43 | 155 | 0.0 | 0.0 | 0.00 | 0.00 | 0.00 | 76 | 1015.6 |
| 20260504014511 | 44 | 155 | 0.0 | 0.0 | 0.00 | 0.00 | 0.00 | 72 | 1015.5 |
| 20260504013033 | 45 | 155 | 0.0 | 0.0 | 0.00 | 0.00 | 0.00 | 69 | 1015.5 |
| 20260504011522 | 46 | 155 | 0.0 | 0.0 | 0.00 | 0.00 | 0.00 | 66 | 1015.4 |
| 20260504010025 | 47 | 155 | 0.0 | 0.0 | 0.00 | 0.00 | 0.00 | 62 | 1015.2 |
| 20260504004538 | 49 | 155 | 0.0 | 0.0 | 0.00 | 0.00 | 0.00 | 57 | 1015.1 |
| 20260504003011 | 51 | 155 | 0.0 | 0.0 | 0.00 | 0.00 | 0.00 | 53 | 1014.9 |
| 20260504001529 | 53 | 155 | 0.0 | 0.0 | 0.00 | 0.00 | 0.00 | 50 | 1014.7 |
| 20260504000024 | 55 | 167 | 0.0 | 0.0 | 0.00 | 0.00 | 0.00 | 43 | 1014.7 |
| 20260503234527 | 57 | 167 | 0.0 | 0.9 | 0.00 | 0.00 | 0.00 | 40 | 1014.5 |
| 20260503233012 | 58 | 252 | 0.0 | 0.9 | 0.00 | 0.00 | 0.00 | 39 | 1014.3 |
| 20260503231514 | 58 | 326 | 0.0 | 2.6 | 0.00 | 0.00 | 0.00 | 37 | 1014.3 |
| 20260503230022 | 59 | 336 | 1.7 | 4.3 | 0.00 | 0.00 | 0.00 | 37 | 1014.3 |
| 20260503224522 | 59 | 338 | 0.0 | 4.3 | 0.00 | 0.00 | 0.00 | 37 | 1014.3 |
| 20260503223026 | 60 | 195 | 0.9 | 4.3 | 0.00 | 0.00 | 0.00 | 36 | 1014.2 |
| 20260503221532 | 60 | 8 | 0.9 | 3.5 | 0.00 | 0.00 | 0.00 | 36 | 1014.3 |
| 20260503220027 | 60 | 341 | 0.9 | 2.6 | 0.00 | 0.00 | 0.00 | 35 | 1014.3 |
| 20260503214532 | 60 | 349 | 2.6 | 4.3 | 0.00 | 0.00 | 0.00 | 34 | 1014.2 |
| 20260503213005 | 60 | 357 | 0.9 | 4.3 | 0.00 | 0.00 | 0.00 | 35 | 1014.2 |
| 20260503211508 | 60 | 342 | 0.9 | 3.5 | 0.00 | 0.00 | 0.00 | 35 | 1014.0 |
| 20260503210018 | 60 | 344 | 1.7 | 7.0 | 0.00 | 0.00 | 0.00 | 33 | 1014.3 |
| 20260503204524 | 60 | 104 | 0.0 | 5.2 | 0.00 | 0.00 | 0.00 | 36 | 1014.2 |
| 20260503203006 | 60 | 337 | 0.9 | 7.8 | 0.00 | 0.00 | 0.00 | 37 | 1014.4 |
| 20260503201514 | 60 | 336 | 2.6 | 5.2 | 0.00 | 0.00 | 0.00 | 36 | 1014.5 |
| 20260503200012 | 59 | 345 | 3.5 | 7.0 | 0.00 | 0.00 | 0.00 | 34 | 1014.6 |
| 20260503194513 | 60 | 10 | 0.9 | 10.4 | 0.00 | 0.00 | 0.00 | 38 | 1014.9 |
| 20260503193018 | 59 | 353 | 2.6 | 7.8 | 0.00 | 0.00 | 0.00 | 38 | 1015.0 |
| 20260503191504 | 58 | 334 | 2.6 | 5.2 | 0.00 | 0.00 | 0.00 | 36 | 1015.1 |
| 20260503190014 | 58 | 68 | 0.9 | 5.2 | 0.00 | 0.00 | 0.00 | 46 | 1015.2 |
| 20260503184514 | 58 | 328 | 2.6 | 8.7 | 0.00 | 0.00 | 0.00 | 38 | 1015.3 |
| 20260503183018 | 58 | 352 | 3.5 | 7.8 | 0.00 | 0.00 | 0.00 | 42 | 1015.6 |
| 20260503181538 | 58 | 332 | 1.7 | 7.0 | 0.00 | 0.00 | 0.00 | 39 | 1015.7 |
| 20260503180037 | 57 | 332 | 2.6 | 4.3 | 0.00 | 0.00 | 0.00 | 40 | 1015.7 |
| 20260503174508 | 56 | 276 | 1.7 | 7.8 | 0.00 | 0.00 | 0.00 | 41 | 1015.7 |
| 20260503173014 | 55 | 335 | 2.6 | 7.0 | 0.00 | 0.00 | 0.00 | 39 | 1015.8 |
| 20260503171524 | 55 | 327 | 3.5 | 7.0 | 0.00 | 0.00 | 0.00 | 38 | 1016.0 |
| 20260503081511 | 41 | 311 | 0.0 | 1.7 | 0.00 | 0.00 | 0.00 | 71 | 1013.9 |
| 20260503071506 | 42 | 330 | 0.9 | 2.6 | 0.00 | 0.00 | 0.00 | 73 | 1013.3 |
| 20260503054518 | 43 | 341 | 0.9 | 1.7 | 0.00 | 0.00 | 0.00 | 72 | 1013.5 |